Location: Unspecified
(0.0000°N, 0.0000°E)
Time: 02:46:43
(UTC+01:00)

Ariane H10 - Visible Passes

Search period start: 02 February 2015 00:00
Search period end: 12 February 2015 00:00
Orbit: 407 x 35157 km, 4.0° (Epoch: 01 February)

Date Brightness Start Highest point End Pass type
(mag) Time Alt. Az. Time Alt. Az. Time Alt. Az.
02 Feb 6.3 13:18:21 10° W 22:51:10 75° WNW 22:51:10 75° WNW visible
04 Feb 5.0 06:24:02 16° WNW 06:28:14 77° N 15:56:06 10° E visible
05 Feb 6.8 14:06:57 10° W 23:31:47 46° W 23:31:47 46° W visible
06 Feb 7.1 10:29:57 10° W 19:54:48 88° S 20:17:41 16° E visible
08 Feb 7.4 14:59:57 10° W 00:12:20 25° W 00:12:20 25° W visible
09 Feb 6.6 11:13:46 10° W 20:46:24 90° N 20:58:13 33° E visible
11 Feb 5.5 04:30:51 28° ENE 04:30:51 28° ENE 04:36:08 10° E visible
